Regional Weather Roundup
Issued by NWS

Home | Current Version | Previous Version | Text Only | Print | Product List | Glossary On
Versions: 1 2 3 4 5 6 7 8 9 10 11 12 13 14 15 16 17 18 19 20 21 22 23 24 25 26 27 28 29 30 31 32 33 34 35 36 37 38 39 40 41 42 43 44 45 46 47 48 49 50
000
ASHW40 PHFO 240243
RWRHI

WEATHER ROUNDUP FOR HAWAII
NATIONAL WEATHER SERVICE HONOLULU HI
400 PM HST THU FEB 23 2017

THIS IS AN AUTOMATED REPORT THAT HAS NOT BEEN QUALITY CONTROLLED.

NOTE..."FAIR" INDICATES FEW OR NO CLOUDS BELOW 12,000 FEET WITH NO
SIGNIFICANT WEATHER AND/OR OBSTRUCTIONS TO VISIBILITY.

* - THESE SITES REPORT LIMITED FIELDS

HIZ001>004-240300-
KAUAI-NIIHAU-

CITY           SKY/WX    TMP DP  RH WIND       PRES   REMARKS
LIHUE APT      MOSUNNY   75  58  55 NE18      30.13S
PORT ALLEN*      N/A     77 N/A N/A E22G28      N/A
POIPU*           N/A     75 N/A N/A NE9G17      N/A
PRINCEVILLE*     N/A     73 N/A N/A NE8G17      N/A
KOKOLE POINT*  NOT AVBL
MOLOAA DAIRY*    N/A     75  59  57 NE3G12      N/A
WAIMEA HTS*      N/A     79  59  50 W6G13       N/A
PUU OPAE*      NOT AVBL
PUU LUA*       NOT AVBL
MAKAHA RIDGE*    N/A     73  57  56 NE3         N/A
$$

HIZ005>011-240300-
OAHU-

CITY           SKY/WX    TMP DP  RH WIND       PRES   REMARKS
HONOLULU       CLOUDY    77  54  44 NE16      30.08F
KALAELOA       MOSUNNY   80  55  42 NE8G16    30.08F
KANEOHE MCB    NOT AVBL
WHEELER FIELD  MOSUNNY   73  56  54 NE8       30.09S
BELLOWS*         N/A    N/A N/A N/A NE14G20     N/A
KAHUKU*          N/A    N/A N/A N/A NE7G15      N/A
WHEELER*         N/A    N/A N/A N/A NE8G18      N/A
WAIANAE HARBOR   N/A    N/A N/A N/A NE7G14      N/A
DILLINGHAM*    NOT AVBL
KAHUKU TRN*      N/A     73  55  53 W8G21       N/A
KAWAILOA*        N/A     70  54  56 E13G21      N/A
KII*             N/A     75  57  53 E15         N/A
MAKUA RANGE*     N/A     68  46  45 W12G23      N/A
OAHU FOREST NW   N/A     66  54  63 CALM        N/A
SCHOFIELD BRK*   N/A     73  55  53 MISG        N/A
SCHOFIELD S*   NOT AVBL
WAIANAE VLY*     N/A     73  54  49 N9G18       N/A
KUAOKALA*        N/A     70  -4   5 N15G30      N/A
HONOULIUULI*   NOT AVBL
MOKUOLOE IS*   NOT AVBL
PALEHUA*         N/A     64  52  63 NE7G17      N/A
WAIAWA PHB*    NOT AVBL
$$

HIZ012>013-240300-
MOLOKAI-

CITY           SKY/WX    TMP DP  RH WIND       PRES   REMARKS
MOLOKAI AIRPT  MOSUNNY   76  57  51 NE13G24   30.10F
KALAUPAPA      NOT AVBL
MAKAPULAPAI*     N/A     77  57  50 E16G23      N/A
MOLOKAI 1*       N/A     63  52  67 N3G16       N/A
PUU ALII*        N/A     57  53  88 N2G10       N/A
$$

HIZ016-240300-
KAHOOLAWE-

CITY           SKY/WX    TMP DP  RH WIND       PRES   REMARKS
KAHOOLAWE*     NOT AVBL
HAKIOAWA*        N/A     70  56  61 MISG      30.48S
HONOKANAIA*      N/A     80  56  42 N16G30    30.01F
KANELOA*         N/A     75  57  53 NE15G31   30.13F
KEALIALALO*    NOT AVBL
LUA MAKIKA*    NOT AVBL
$$

HIZ014>015-240300-
LANAI-

CITY           SKY/WX    TMP DP  RH WIND       PRES   REMARKS
LANAI CITY       N/A     71  56  58 NE22G30   30.10F
LANAI 1*         N/A     68  54  60 NE21G32     N/A
$$

HIZ017>028-240300-
MAUI-

CITY           SKY/WX    TMP DP  RH WIND       PRES   REMARKS
KAHULUI        MOSUNNY   78  55  44 NE18      30.10S
KAPALUA-W MAUI MOSUNNY   73  54  49 NE21G29   30.10R
HANA AIRPORT   CLOUDY    73  55  53 NE7       30.14S
HANA*            N/A     73 N/A N/A N6          N/A
HALEAKALA SUMM   N/A     46  25  42 NE7         N/A
MAALAEA BAY*     N/A     77 N/A N/A N17G28      N/A
HALEAKALA*     NOT AVBL
KAUPO GAP*       N/A     73  64  73 SE5G13      N/A
KULA 1*          N/A    N/A N/A N/A NW5G10      N/A
$$

HIZ023>026-240300-
BIG ISLAND OF HAWAII COAST AND LOWER SLOPES-

CITY           SKY/WX    TMP DP  RH WIND       PRES   REMARKS
KAILUA KONA    MOSUNNY   79  58  48 SW10      30.02F
HILO           PTSUNNY   74  60  61 N10       30.08F
HONOKAA*         N/A     68 N/A N/A VRB1        N/A
KAWAIHAE MWT*    N/A     86 N/A N/A W9          N/A
KAWAIHAE*        N/A     79 N/A N/A W9        30.02S
SOUTH POINT*     N/A     73 N/A N/A N16G24      N/A
UPOLU AIRPORT* NOT AVBL
KAMUELA*       PTCLDY    66  55  68 NE15      30.15R
HAKALAU*         N/A     48  48 100 NE5G10      N/A
KALOKO-HONOKO*   N/A     81  64  57 SW7       30.02S
PALI 2*          N/A     70  54  56 SW20G30     N/A
KEALAKOMO*       N/A     81  57  44 VRB25G38    N/A
KAUPULEHU*       N/A     75  52  43 N9G15       N/A
KAPAPALA*        N/A     74  60  61 SW8G17      N/A
LOWER KAHUKU*    N/A     64  57  77 SE3G12      N/A
PUHE CS*         N/A     82  55  39 W3G10       N/A
PUHO CS*         N/A     81  63  54 SW3         N/A
PTA KEAMUKU*     N/A     64  52  63 CALM        N/A
WAIKOLOA*        N/A     75  54  46 E18G31      N/A
$$

HIZ027>028-240300-
BIG ISLAND OF HAWAII INTERIOR AND SUMMMITS-

CITY           SKY/WX    TMP DP  RH WIND       PRES   REMARKS
BRADSHAW FIELD MOSUNNY   62  33  33 W9        30.29S
MK VISITOR CEN   N/A     45  32  61 W12         N/A
MAUNA KEA*       N/A     30  23  74 N3          N/A
MAUNA LOA*       N/A     37  34  87 MISG        N/A
MAUNA LOA 1*   NOT AVBL
PTA KIPUKA*      N/A     66  48  52 NW8G18      N/A
PTA RANGE 17*    N/A     64  37  36 W10G20      N/A
PTA WEST*        N/A     66  45  45 N12G18      N/A
NENE CABIN*      N/A     57  32  38 S5G12       N/A
AHUMOA*          N/A     59  43  56 N6G18       N/A
PTA PORTABLE*  NOT AVBL
PUU MALI*        N/A     50  46  87 NE14        N/A
$$

HIC003-240300-
NORTHWEST ISLANDS-

CITY           SKY/WX    TMP DP  RH WIND       PRES   REMARKS
MIDWAY ISLAND  CLOUDY    66  57  72 NE16G24   30.25S
MIDWAY NOS*      N/A     66 N/A N/A MISG      30.22S
FRENCH FRIGATE NOT AVBL
$$

PHZ110>124-180-240300-
BUOY REPORTS

STATION/POSITION TIME  TEMP    WIND        PRES    WAVE   SWELL
                       AIR SEA DIR/SP/G            HT/PER HT/DIR
                 (UTC) (F)     (DEG/KT/KT) (MB)    (FT/S) (FT/D)
BUOY 51001       0220   70 72   50/ 10/ 14 1021.5
BUOY 51101       0050   70 73   40/ 14/ 16 1022.3    6/14   5/320
BUOY 51100       NOT AVBL
BUOY 51002       0220   76 77   50/ 17/ 21 1016.0
BUOY 51003       0050   75 77   50/ 19/ 23 1017.4    8/ 7   5/330
BUOY 51004       0150      77   30/ 19/ 21 1015.4F   7/ 9   5/ 40
BARBERS PT BUOY  NOT AVBL
WAIMEA BAY BUOY  0202      75                N/A     6/13   5/320
KAILUA BAY BUOY  0204      75                N/A     7/15   5/350
LANAI BUOY       0215      77                N/A     2/15   2/300
BARBERS PT 2     NOT AVBL
PAUWELA MAUI     0209      75                N/A     8/13   5/320
HILO             0212      76                N/A     7/ 8   3/330
KANEOHE BAY BUOY 0206      75                N/A     6/15   3/350
HANALEI KAUAI    0152      75                N/A     7/13   5/300
KAHULUI HARBOR   0206   73 74   30/ 12/ 16 1019.2
HONOLULU HARBOR  0206   74 76   50/  8/ 17 1019.0
KILO NALU        NOT AVBL
HILO HARBOR      0206   73 76   20/ 12/ 17 1018.4
MOKUOLOE         0136   73 74   50/ 11/ 13 1019.3F
NAWILIWILI       0206   73 77   40/ 13/ 17 1019.6
WHOTS BUOY       NOT AVBL
BUOY 51028       NOT AVBL
$$

......................KEY........................................
  SKY/WX - SKY CONDITIONS/PRESENT WEATHER
  TMP    - TEMPERATURE IN FAHRENHEIT
  DWPT   - DEWPOINT IN FAHRENHEIT
  RH     - RELATIVE HUMIDITY IN PERCENT
  WIND   - DIRECTION AND SPEED /MPH FOR ISLANDS...KTS FOR BUOYS/
  PRES   - MEAN SEA LEVEL PRESSURE IN INCHES OF HG
  VSB    - VISIBILITY IN MILES
  HX     - HEAT INDEX
  WCI    - WIND CHILL INDEX
  VRB    - VARIABLE WIND DIRECTION
  N/A    - NOT AVAILABLE



USA.gov is the U.S. government's official web portal to all federal, state and local government web resources and services.